[[{"header":{"parameterUnit":"m.s-1","parameterCategory":1,"la1":30.2991,"la2":30.254,"lo1":-89.0895,"lo2":-89.0444,"dy":0.0017,"dx":0.0017,"nx":28,"ny":28,"refTime":"2024-04-04T21:00:00:Z","depth":0,"parameterNumber":2,"parameterNumberName":"U-component_of_WINDS"},"data":[0,0,0,0,0,0,0,0,0,0,0,0,0,0,0,0,0,0,0,0,0,0,0,0,0,0,0,0,0,0,0,0,0,0,0,0,0,0,0,0,0,0,0,0,0,0,0,0,0,0,0,0,0,0,0,0,0,0,3.5082,3.5083,0,3.5154,3.5154,3.5155,3.5015,3.5011,3.5006,3.5002,3.5078,3.5085,3.5091,0,0,0,0,0,0,0,0,0,0,0,0,0,3.4829,3.4835,3.5082,3.5083,3.5084,3.5153,3.5154,3.5155,3.5016,3.5011,3.5005,3.5,3.5076,3.5084,3.5091,0,0,0,0,0,0,0,0,0,0,0,0,0,3.4924,3.4837,3.5082,3.5023,3.5018,3.5153,3.5154,3.5156,3.5017,3.501,3.5004,3.4997,3.5074,3.5083,3.5092,3.5289,0,0,3.5121,3.5126,0,0,0,0,0,0,0,0,3.4919,3.4933,3.5031,3.5027,3.5022,3.5068,3.5093,3.5201,3.5019,3.5018,3.5002,3.4994,3.5081,3.5089,3.5118,3.5293,3.5296,3.5122,3.5128,3.5132,3.5135,0,0,0,0,0,0,0,3.4913,3.493,3.511,3.5032,3.5027,3.4994,3.5,3.5113,3.5087,3.5017,3.5007,3.5018,3.5077,3.5109,3.5119,3.5297,3.5122,3.513,3.5136,3.514,3.5639,3.5646,0,0,0,0,0,0,3.4913,3.4925,3.5108,3.5113,3.4952,3.5004,3.5011,3.5061,3.5086,3.5083,3.5023,3.5011,3.5096,3.5108,3.5121,3.5354,3.5132,3.5141,3.5146,3.5632,3.5641,3.5649,0,0,0,0,0,0,3.4908,3.4931,3.5105,3.5016,3.5036,3.5016,3.5073,3.5066,3.5097,3.509,3.5085,3.5061,3.5091,3.5108,3.5249,3.5355,3.5145,3.5154,3.5623,3.5634,3.5645,3.5823,0,0,0,0,0,0,3.4901,3.493,3.5003,3.5019,3.5041,3.5232,3.508,3.5072,3.5114,3.5098,3.5124,3.5121,3.5087,3.5235,3.5258,3.5364,3.5161,3.5613,3.5628,3.5641,3.5807,3.5839,3.5866,0,0,0,0,0,3.4893,3.5051,3.5008,3.5031,3.5133,3.5238,3.5251,3.5207,3.5123,3.5198,3.5193,3.5121,3.5339,3.5251,3.5275,3.5386,3.5606,3.5624,3.564,3.5794,3.5833,3.5865,0,0,0,0,0,0,3.505,3.5052,3.5004,3.5172,3.5206,3.5214,3.5307,3.5249,3.5308,3.5291,3.5235,3.5242,3.5395,3.5404,3.5305,3.5579,3.5459,3.5482,3.5567,3.5604,3.5632,3.5628,3.5169,0,0,0,0,0,3.5104,3.5188,3.5185,3.5334,3.5353,3.5328,3.5371,3.5335,3.5368,3.5382,3.5387,3.5424,3.55,3.5552,3.5622,3.5807,3.5812,3.5896,3.5925,3.5949,3.597,3.607,3.6108,3.5705,3.5705,3.5704,0,0,3.5216,3.5228,3.5285,3.5366,3.5387,3.5477,3.534,3.544,3.5507,3.5397,3.5531,3.5537,3.5573,3.5738,3.581,3.575,3.6082,3.5971,3.599,3.5998,3.6091,3.613,3.6164,3.5716,3.5714,3.5712,0,0,3.5468,3.5484,3.561,3.5635,3.5669,3.5651,3.5682,3.5699,3.5699,3.5832,3.5752,3.583,3.5963,3.5993,3.6026,3.6289,3.6226,3.6314,3.6467,3.6565,3.6597,3.6625,3.6721,3.6756,3.6334,3.6335,3.6335,0,3.5604,3.5734,3.5683,3.5789,3.5828,3.5731,3.586,3.5886,3.5943,3.5973,3.5904,3.607,3.6087,3.6258,3.6322,3.6351,3.6386,3.6311,3.6596,3.6624,3.6649,3.674,3.6776,3.6345,3.6344,3.6343,3.6342,0,3.5901,3.5993,3.6091,3.6147,3.6197,3.6313,3.6281,3.6337,3.6297,3.6287,3.6424,3.6442,3.6515,3.6552,3.6514,3.6718,3.668,3.6605,3.6483,3.6699,3.6784,3.6818,3.6361,3.6357,3.6354,3.6351,0,0,3.6254,3.628,3.6317,3.6342,3.6373,3.6444,3.6557,3.6627,3.6678,3.672,3.6814,3.6929,3.686,3.6897,3.6861,3.6947,3.7157,3.6862,3.6862,3.6918,3.7386,3.7444,3.7485,3.7114,3.7121,3.7126,3.7384,0,3.6505,3.6698,3.6655,3.6847,3.6932,3.6842,3.694,3.6971,3.6965,3.7037,3.703,3.7113,3.7015,3.7037,3.7118,3.7115,3.7251,3.7095,3.7204,3.7208,3.7199,3.7528,3.759,3.7832,3.7416,3.7422,3.7426,0,3.6823,3.6877,3.7077,3.7095,3.7129,3.7218,3.728,3.7349,3.7383,3.7372,3.7415,3.7362,3.7475,3.7352,3.7508,3.7404,3.7445,3.7451,3.7459,3.7469,3.7331,3.7549,3.7908,3.7945,3.7477,3.7473,3.7469,0,3.7063,3.7185,3.7321,3.7345,3.7369,3.7434,3.7447,3.7474,3.7519,3.7573,3.7602,3.7669,3.7707,3.7761,3.7728,3.7641,3.7892,3.7764,3.7887,3.7889,3.7946,3.7943,3.8318,3.797,3.797,3.7969,3.7968,0,3.7349,3.7475,3.7429,3.7513,3.7652,3.7602,3.7741,3.7744,3.7768,3.7852,3.7778,3.7859,3.781,3.7887,3.7862,3.7997,3.8014,3.801,3.8002,3.8018,3.8019,3.8046,3.8029,3.7979,3.7976,3.7975,3.7973,0,3.7641,3.7615,3.7757,3.7768,3.7774,3.7876,3.7886,3.7965,3.7952,3.806,3.8082,3.8064,3.8151,3.8123,3.8217,3.82,3.8372,3.8341,3.8361,3.8354,3.8479,3.8468,3.8886,3.8939,3.8556,3.8559,3.8562,0,3.7826,3.7921,3.7942,3.7992,3.801,3.8092,3.8138,3.8092,3.8143,3.8189,3.8263,3.8343,3.8405,3.8548,3.8544,3.8616,3.8588,3.8729,3.8598,3.8611,3.8592,3.8588,3.8598,3.8756,3.8761,3.8764,3.8767,0,3.8157,3.8139,3.8207,3.8272,3.8329,3.8377,3.842,3.8465,3.8422,3.8484,3.8571,3.8619,3.8715,3.8796,3.8861,3.8876,3.8816,3.8808,3.8841,3.8858,3.8866,3.8865,3.8434,3.8799,3.8796,3.8794,3.8792,3.8791,3.8402,3.8483,3.851,3.8589,3.8616,3.8657,3.8732,3.8729,3.8801,3.8874,3.8843,3.8945,3.8976,3.9057,3.9081,3.9161,3.9107,3.9153,3.9166,3.9178,3.9195,3.8852,3.9172,3.9171,3.917,3.917,3.9169,0,3.8731,3.8744,3.8817,3.8878,3.8941,3.8877,3.892,3.8977,3.9067,3.9101,3.9163,3.9265,3.9344,3.9346,3.9419,3.9483,3.9457,3.9504,3.95,3.9505,3.9238,3.9204,3.9523,3.9523,3.9523,3.9523,3.9523,3.9523,3.891,3.9043,3.9029,3.9176,3.9188,3.9286,3.9317,3.9355,3.9382,3.9498,3.9563,3.9563,3.9585,3.966,3.973,3.9728,3.976,3.9817,3.9806,3.9558,3.9523,3.9489,3.9457,3.9824,3.9825,4.0065,4.0068,4.0069]},{"header":{"parameterUnit":"m.s-1","parameterCategory":1,"la1":30.2991,"la2":30.254,"lo1":-89.0895,"lo2":-89.0444,"dy":0.0017,"dx":0.0017,"nx":28,"ny":28,"refTime":"2024-04-04T21:00:00:Z","depth":0,"parameterNumber":3,"parameterNumberName":"V-component_of_WINDS"},"data":[0,0,0,0,0,0,0,0,0,0,0,0,0,0,0,0,0,0,0,0,0,0,0,0,0,0,0,0,0,0,0,0,0,0,0,0,0,0,0,0,0,0,0,0,0,0,0,0,0,0,0,0,0,0,0,0,0,0,-1.0066,-1.0066,0,-1.014,-1.0141,-1.0142,-1.0208,-1.0209,-1.021,-1.021,-1.0284,-1.0285,-1.0287,0,0,0,0,0,0,0,0,0,0,0,0,0,-0.9979,-0.9981,-1.0066,-1.0067,-1.0067,-1.014,-1.0141,-1.0142,-1.0208,-1.0209,-1.021,-1.0211,-1.0284,-1.0285,-1.0287,0,0,0,0,0,0,0,0,0,0,0,0,0,-1.0031,-0.9981,-1.0065,-1.0109,-1.0114,-1.0139,-1.0141,-1.0142,-1.0208,-1.0209,-1.021,-1.0211,-1.0283,-1.0285,-1.0287,-1.0274,0,0,-1.0292,-1.0293,0,0,0,0,0,0,0,0,-1.0028,-1.0035,-1.0102,-1.0106,-1.0112,-1.0166,-1.0137,-1.0186,-1.0208,-1.0172,-1.0211,-1.0212,-1.0244,-1.0249,-1.026,-1.0278,-1.0281,-1.0293,-1.0294,-1.0294,-1.0295,0,0,0,0,0,0,0,-1.0025,-1.0032,-1.0095,-1.0103,-1.0109,-1.0125,-1.0133,-1.0147,-1.02,-1.0175,-1.018,-1.0188,-1.0247,-1.0258,-1.0262,-1.0282,-1.0293,-1.0294,-1.0295,-1.0296,-1.0292,-1.0291,0,0,0,0,0,0,-1.0015,-1.0028,-1.0093,-1.0097,-1.0072,-1.0125,-1.0135,-1.0147,-1.02,-1.021,-1.0187,-1.0191,-1.0254,-1.026,-1.0265,-1.0253,-1.0294,-1.0296,-1.0297,-1.0294,-1.0292,-1.0291,0,0,0,0,0,0,-1.0013,-1.002,-1.009,-1.0064,-1.0074,-1.0125,-1.0139,-1.0148,-1.016,-1.0209,-1.0219,-1.0189,-1.0256,-1.0263,-1.0272,-1.0257,-1.0297,-1.0299,-1.0295,-1.0293,-1.0292,-1.0229,0,0,0,0,0,0,-1.001,-1.0019,-1.0015,-1.0064,-1.0075,-1.0095,-1.0138,-1.0149,-1.0163,-1.0169,-1.0214,-1.0222,-1.0257,-1.0268,-1.0273,-1.026,-1.03,-1.0297,-1.0294,-1.0292,-1.0233,-1.0226,-1.0219,0,0,0,0,0,-1.0007,-0.9994,-1.0014,-1.0022,-1.0072,-1.0094,-1.0101,-1.0141,-1.0162,-1.0158,-1.019,-1.0221,-1.0258,-1.0269,-1.0275,-1.0262,-1.0298,-1.0295,-1.0292,-1.0236,-1.0227,-1.0219,0,0,0,0,0,0,-0.9941,-1.0001,-1.0024,-1.0027,-1.0055,-1.0105,-1.0101,-1.0131,-1.0153,-1.0157,-1.0207,-1.0216,-1.0219,-1.0242,-1.0253,-1.0252,-1.0282,-1.028,-1.0237,-1.0229,-1.0222,-1.0216,-1.0302,0,0,0,0,0,-0.9927,-0.9941,-0.9992,-0.999,-1.0003,-1.005,-1.0061,-1.009,-1.0121,-1.0133,-1.0165,-1.0193,-1.0211,-1.0222,-1.0241,-1.0237,-1.0247,-1.0231,-1.0224,-1.0219,-1.0216,-1.0215,-1.0208,-1.0282,-1.0282,-1.0282,0,0,-0.9898,-0.9932,-0.9938,-0.9978,-1.0003,-1.0015,-1.0059,-1.007,-1.008,-1.0134,-1.0144,-1.0169,-1.0204,-1.0206,-1.0209,-1.0225,-1.0198,-1.0215,-1.021,-1.0211,-1.0211,-1.0204,-1.0198,-1.028,-1.0281,-1.0281,0,0,-0.9851,-0.9879,-0.988,-0.9904,-0.9942,-0.9973,-0.9973,-1.0019,-1.0038,-1.005,-1.009,-1.0102,-1.0132,-1.0155,-1.017,-1.0133,-1.0162,-1.0138,-1.0102,-1.01,-1.0094,-1.0089,-1.0074,-1.0069,-1.0135,-1.0135,-1.0135,0,-0.9809,-0.9831,-0.9876,-0.9885,-0.9901,-0.9952,-0.9952,-0.9974,-1.0015,-1.0025,-1.0043,-1.0081,-1.0108,-1.0116,-1.0107,-1.0118,-1.0119,-1.0132,-1.0091,-1.0087,-1.0083,-1.0069,-1.0064,-1.0132,-1.0132,-1.0133,-1.0133,0,-0.9777,-0.9791,-0.9787,-0.9827,-0.9843,-0.9847,-0.9893,-0.9903,-0.9931,-0.996,-0.9971,-1.0005,-1.0032,-1.0036,-1.0064,-1.0048,-1.0057,-1.0082,-1.0113,-1.0072,-1.006,-1.0055,-1.0127,-1.0128,-1.0129,-1.013,0,0,-0.9689,-0.9755,-0.9752,-0.9771,-0.9817,-0.9828,-0.9835,-0.9862,-0.9869,-0.9897,-0.9903,-0.9927,-0.9952,-0.9969,-0.9999,-0.9998,-0.9965,-1.0024,-1.0026,-1.001,-0.9948,-0.9927,-0.992,-0.9985,-0.9985,-0.9984,-0.9945,0,-0.9649,-0.9664,-0.9706,-0.9708,-0.9721,-0.977,-0.9776,-0.9804,-0.9832,-0.9847,-0.9877,-0.9893,-0.9925,-0.9936,-0.9937,-0.9968,-0.9952,-0.9972,-0.999,-0.999,-0.9978,-0.9915,-0.9893,-0.9854,-0.9941,-0.994,-0.9939,0,-0.9603,-0.9628,-0.9631,-0.9677,-0.9684,-0.9688,-0.9716,-0.973,-0.9763,-0.9783,-0.9803,-0.9837,-0.9846,-0.9876,-0.9889,-0.9901,-0.9911,-0.9928,-0.9927,-0.9929,-0.9961,-0.9913,-0.9843,-0.9836,-0.9933,-0.9933,-0.9934,0,-0.9537,-0.9571,-0.9578,-0.9592,-0.9645,-0.9647,-0.9669,-0.9704,-0.9717,-0.9742,-0.9751,-0.9776,-0.9789,-0.9807,-0.9847,-0.9865,-0.9855,-0.9888,-0.9871,-0.9869,-0.9865,-0.9864,-0.9793,-0.9874,-0.9874,-0.9874,-0.9874,0,-0.9486,-0.9486,-0.9549,-0.9552,-0.9554,-0.9601,-0.9601,-0.9628,-0.9658,-0.9668,-0.9712,-0.972,-0.9773,-0.9786,-0.9818,-0.9823,-0.9829,-0.9844,-0.9852,-0.9839,-0.9837,-0.9845,-0.9848,-0.9873,-0.9873,-0.9873,-0.9874,0,-0.9411,-0.9453,-0.9463,-0.9513,-0.9526,-0.9524,-0.9567,-0.9572,-0.9603,-0.9614,-0.962,-0.9668,-0.9686,-0.9728,-0.9758,-0.9779,-0.9775,-0.9791,-0.9764,-0.9769,-0.9748,-0.9749,-0.9679,-0.9671,-0.9758,-0.9757,-0.9756,0,-0.9375,-0.9376,-0.9426,-0.9436,-0.9456,-0.9472,-0.9486,-0.9533,-0.9546,-0.9584,-0.9584,-0.9606,-0.9626,-0.9653,-0.969,-0.9713,-0.9729,-0.9703,-0.9732,-0.9719,-0.9726,-0.9725,-0.9725,-0.9695,-0.9694,-0.9693,-0.9692,0,-0.9305,-0.9326,-0.9346,-0.9372,-0.9388,-0.9411,-0.9436,-0.9441,-0.9495,-0.9507,-0.9526,-0.9542,-0.9573,-0.9593,-0.9622,-0.9644,-0.9676,-0.9683,-0.968,-0.9666,-0.9649,-0.9656,-0.9744,-0.9684,-0.9685,-0.9685,-0.9686,-0.9686,-0.9248,-0.9251,-0.9287,-0.9306,-0.9331,-0.9353,-0.936,-0.9393,-0.941,-0.9439,-0.9466,-0.9483,-0.9516,-0.9558,-0.9578,-0.9591,-0.9608,-0.9603,-0.9602,-0.96,-0.9593,-0.9649,-0.9597,-0.9597,-0.9597,-0.9598,-0.9598,0,-0.918,-0.9205,-0.9223,-0.9257,-0.9272,-0.9303,-0.9333,-0.9343,-0.9358,-0.9386,-0.9405,-0.9428,-0.9448,-0.9487,-0.9511,-0.9514,-0.953,-0.9519,-0.9518,-0.9523,-0.9578,-0.9578,-0.9506,-0.9506,-0.9506,-0.9506,-0.9506,-0.9506,-0.9146,-0.9152,-0.9177,-0.9196,-0.9222,-0.9239,-0.9253,-0.9274,-0.9297,-0.932,-0.9338,-0.9364,-0.9396,-0.9423,-0.9443,-0.9454,-0.946,-0.9444,-0.946,-0.951,-0.9519,-0.9527,-0.9527,-0.9446,-0.9445,-0.9403,-0.9402,-0.9402]}]]